Sioux Arrow — WAG6168 — position and weather

sailwx.info

Track history (hours):
 
Tides and Currents Weather Stations Pressure Air Temp Water Temp Dewpoint Dewpoint Depression Visibility Wind Speed Wind Dir Waves Ship Positions

Sioux Arrow

Owner: HARMON, JACK L, PORT ANGELES, WA. More information available from US FCC via Universal Licensing System and Coast Guard Vessel Documentation Center.

Last reported at 2014-Oct-21 00:11 UTC. Time now 2014-Oct-21 13:43 UTC.
Position N 48°31' W 122°36'.

Type: Port tender. MMSI: 366973370.

Date/timePositionNaut miles runAvg speedWind from/ knotsBaromVisibWave heightAir tempDewpointWater temp
2014-Oct-21 00:11N 48°31' W 122°36'0 0.0
2014-Oct-20 23:33N 48°31' W 122°36'0 0.2
2014-Oct-20 22:33N 48°31' W 122°36'1 1.0
2014-Oct-20 21:33N 48°31' W 122°35'0 0.2
2014-Oct-20 20:33N 48°31' W 122°35'1 0.7
2014-Oct-20 19:33N 48°31' W 122°36'1 0.2
2014-Oct-20 15:33N 48°31' W 122°35'0 0.0
2014-Oct-20 12:33N 48°31' W 122°35'1 0.7
2014-Oct-20 11:34N 48°31' W 122°34'2 0.1
2014-Oct-19 17:24N 48°31' W 122°36'0 0.0
2014-Oct-19 16:07N 48°31' W 122°37'4 7.1
2014-Oct-19 15:34N 48°34' W 122°34'3 1.3
2014-Oct-19 13:33N 48°32' W 122°34'2 0.4
2014-Oct-19 09:28N 48°31' W 122°36'0 0.0
2014-Oct-19 08:11N 48°31' W 122°36'0 0.0
2014-Oct-19 07:07N 48°31' W 122°36'0 0.0
2014-Oct-18 23:06N 48°31' W 122°36'2 2.7
2014-Oct-18 22:27N 48°31' W 122°34'2 2.1
2014-Oct-18 21:33N 48°31' W 122°37'0 0.0
2014-Oct-18 15:19N 48°31' W 122°36'0 0.2
2014-Oct-18 14:29N 48°31' W 122°36'0 0.0
2014-Oct-18 13:31N 48°31' W 122°36'1 0.1
2014-Oct-18 04:33N 48°31' W 122°35'1312.9
2014-Oct-18 03:34N 48°44' W 122°32'2 1.8
2014-Oct-18 02:26N 48°46' W 122°31'0 0.0
2014-Oct-18 01:33N 48°45' W 122°31'1412.2
2014-Oct-18 00:25N 48°32' W 122°34'2 0.5
2014-Oct-17 21:05N 48°31' W 122°37'5 9.1
2014-Oct-17 20:33N 48°35' W 122°34'1 1.1
2014-Oct-17 19:33N 48°36' W 122°34'2 0.8
2014-Oct-17 16:40N 48°34' W 122°34'213.8
2014-Oct-17 16:33N 48°36' W 122°34'10 9.5
2014-Oct-17 15:30N 48°45' W 122°31'1 1.2
2014-Oct-17 14:33N 48°44' W 122°32'0 0.0
2014-Oct-17 02:32N 48°44' W 122°32'0 0.0
2014-Oct-16 14:32N 48°45' W 122°31'1 1.2
2014-Oct-16 13:33N 48°46' W 122°31'1 1.1
2014-Oct-16 12:34N 48°45' W 122°31'1 1.0
2014-Oct-16 11:33N 48°45' W 122°31'1211.7
2014-Oct-16 10:32N 48°34' W 122°34'2 1.1
2014-Oct-16 08:34N 48°32' W 122°34'4 0.4
2014-Oct-15 21:26N 48°35' W 122°33'5 1.3
2014-Oct-15 17:23N 48°31' W 122°36'1 1.7
2014-Oct-15 16:33N 48°32' W 122°35'3 1.3
2014-Oct-15 14:35N 48°34' W 122°34'013.8
2014-Oct-15 14:33N 48°34' W 122°34'4 1.7
2014-Oct-15 12:06N 48°31' W 122°36'1 1.6
2014-Oct-15 11:29N 48°31' W 122°35'1 0.1
2014-Oct-15 02:33N 48°32' W 122°34'114.4
2014-Oct-15 02:28N 48°33' W 122°34'2 0.5
2014-Oct-14 22:33N 48°31' W 122°35'1 0.6
2014-Oct-14 21:31N 48°32' W 122°34'4 4.4
2014-Oct-14 20:33N 48°36' W 122°32'4 1.4
2014-Oct-14 17:16N 48°31' W 122°35'0 0.2
2014-Oct-14 16:33N 48°32' W 122°35'2 1.1
2014-Oct-14 15:08N 48°31' W 122°36'712.4
2014-Oct-14 14:33N 48°38' W 122°33'7 6.3
2014-Oct-14 13:26N 48°45' W 122°31'1011.7
2014-Oct-14 12:33N 48°34' W 122°34'4 0.6
2014-Oct-14 05:24N 48°31' W 122°36'6 6.8
2014-Oct-14 04:33N 48°36' W 122°32'6 2.3
2014-Oct-14 02:09N 48°31' W 122°36'6 9.5
2014-Oct-14 01:34N 48°36' W 122°32'6 4.5
2014-Oct-14 00:17N 48°31' W 122°36'7 8.7
2014-Oct-13 23:30N 48°37' W 122°34'6 1.6
2014-Oct-13 19:30N 48°31' W 122°35'1 0.2
2014-Oct-13 15:31N 48°31' W 122°35'1313.3
2014-Oct-13 14:32N 48°44' W 122°32'1 0.1
2014-Oct-12 23:32N 48°45' W 122°31'1 0.4
2014-Oct-12 21:16N 48°45' W 122°30'1 1.0
2014-Oct-12 20:26N 48°45' W 122°31'1 0.4
2014-Oct-12 18:26N 48°45' W 122°30'0 0.2
2014-Oct-12 16:33N 48°45' W 122°31'0 0.4
2014-Oct-12 15:30N 48°45' W 122°31'1 0.2
2014-Oct-12 11:05N 48°45' W 122°30'2 3.1
2014-Oct-12 10:34N 48°44' W 122°32'0 0.0
2014-Oct-11 22:33N 48°45' W 122°32'1 0.1
2014-Oct-11 11:16N 48°45' W 122°30'0 0.1
2014-Oct-11 09:15N 48°45' W 122°30'6 8.2
2014-Oct-11 08:33N 48°40' W 122°33'9 1.3
2014-Oct-11 01:32N 48°31' W 122°35'5 4.9
2014-Oct-11 00:32N 48°35' W 122°33'  
Track history (hours):
 
Tides and Currents Weather Stations Pressure Air Temp Water Temp Dewpoint Dewpoint Depression Visibility Wind Speed Wind Dir Waves Ship Positions

Sioux Arrow

Owner: HARMON, JACK L, PORT ANGELES, WA. More information available from US FCC via Universal Licensing System and Coast Guard Vessel Documentation Center.

Last reported at 2014-Oct-21 00:11 UTC. Time now 2014-Oct-21 13:43 UTC.
Position N 48°31' W 122°36'.

Type: Port tender. MMSI: 366973370.

Date/timePositionNaut miles runAvg speedWind from/ knotsBaromVisibWave heightAir tempDewpointWater temp
2014-Oct-21 00:11N 48°31' W 122°36'0 0.0
2014-Oct-20 23:33N 48°31' W 122°36'0 0.2
2014-Oct-20 22:33N 48°31' W 122°36'1 1.0
2014-Oct-20 21:33N 48°31' W 122°35'0 0.2
2014-Oct-20 20:33N 48°31' W 122°35'1 0.7
2014-Oct-20 19:33N 48°31' W 122°36'1 0.2
2014-Oct-20 15:33N 48°31' W 122°35'0 0.0
2014-Oct-20 12:33N 48°31' W 122°35'1 0.7
2014-Oct-20 11:34N 48°31' W 122°34'2 0.1
2014-Oct-19 17:24N 48°31' W 122°36'0 0.0
2014-Oct-19 16:07N 48°31' W 122°37'4 7.1
2014-Oct-19 15:34N 48°34' W 122°34'3 1.3
2014-Oct-19 13:33N 48°32' W 122°34'2 0.4
2014-Oct-19 09:28N 48°31' W 122°36'0 0.0
2014-Oct-19 08:11N 48°31' W 122°36'0 0.0
2014-Oct-19 07:07N 48°31' W 122°36'0 0.0
2014-Oct-18 23:06N 48°31' W 122°36'2 2.7
2014-Oct-18 22:27N 48°31' W 122°34'2 2.1
2014-Oct-18 21:33N 48°31' W 122°37'0 0.0
2014-Oct-18 15:19N 48°31' W 122°36'0 0.2
2014-Oct-18 14:29N 48°31' W 122°36'0 0.0
2014-Oct-18 13:31N 48°31' W 122°36'1 0.1
2014-Oct-18 04:33N 48°31' W 122°35'1312.9
2014-Oct-18 03:34N 48°44' W 122°32'2 1.8
2014-Oct-18 02:26N 48°46' W 122°31'0 0.0
2014-Oct-18 01:33N 48°45' W 122°31'1412.2
2014-Oct-18 00:25N 48°32' W 122°34'2 0.5
2014-Oct-17 21:05N 48°31' W 122°37'5 9.1
2014-Oct-17 20:33N 48°35' W 122°34'1 1.1
2014-Oct-17 19:33N 48°36' W 122°34'2 0.8
2014-Oct-17 16:40N 48°34' W 122°34'213.8
2014-Oct-17 16:33N 48°36' W 122°34'10 9.5
2014-Oct-17 15:30N 48°45' W 122°31'1 1.2
2014-Oct-17 14:33N 48°44' W 122°32'0 0.0
2014-Oct-17 02:32N 48°44' W 122°32'0 0.0
2014-Oct-16 14:32N 48°45' W 122°31'1 1.2
2014-Oct-16 13:33N 48°46' W 122°31'1 1.1
2014-Oct-16 12:34N 48°45' W 122°31'1 1.0
2014-Oct-16 11:33N 48°45' W 122°31'1211.7
2014-Oct-16 10:32N 48°34' W 122°34'2 1.1
2014-Oct-16 08:34N 48°32' W 122°34'4 0.4
2014-Oct-15 21:26N 48°35' W 122°33'5 1.3
2014-Oct-15 17:23N 48°31' W 122°36'1 1.7
2014-Oct-15 16:33N 48°32' W 122°35'3 1.3
2014-Oct-15 14:35N 48°34' W 122°34'013.8
2014-Oct-15 14:33N 48°34' W 122°34'4 1.7
2014-Oct-15 12:06N 48°31' W 122°36'1 1.6
2014-Oct-15 11:29N 48°31' W 122°35'1 0.1
2014-Oct-15 02:33N 48°32' W 122°34'114.4
2014-Oct-15 02:28N 48°33' W 122°34'2 0.5
2014-Oct-14 22:33N 48°31' W 122°35'1 0.6
2014-Oct-14 21:31N 48°32' W 122°34'4 4.4
2014-Oct-14 20:33N 48°36' W 122°32'4 1.4
2014-Oct-14 17:16N 48°31' W 122°35'0 0.2
2014-Oct-14 16:33N 48°32' W 122°35'2 1.1
2014-Oct-14 15:08N 48°31' W 122°36'712.4
2014-Oct-14 14:33N 48°38' W 122°33'7 6.3
2014-Oct-14 13:26N 48°45' W 122°31'1011.7
2014-Oct-14 12:33N 48°34' W 122°34'4 0.6
2014-Oct-14 05:24N 48°31' W 122°36'6 6.8
2014-Oct-14 04:33N 48°36' W 122°32'6 2.3
2014-Oct-14 02:09N 48°31' W 122°36'6 9.5
2014-Oct-14 01:34N 48°36' W 122°32'6 4.5
2014-Oct-14 00:17N 48°31' W 122°36'7 8.7
2014-Oct-13 23:30N 48°37' W 122°34'6 1.6
2014-Oct-13 19:30N 48°31' W 122°35'1 0.2
2014-Oct-13 15:31N 48°31' W 122°35'1313.3
2014-Oct-13 14:32N 48°44' W 122°32'1 0.1
2014-Oct-12 23:32N 48°45' W 122°31'1 0.4
2014-Oct-12 21:16N 48°45' W 122°30'1 1.0
2014-Oct-12 20:26N 48°45' W 122°31'1 0.4
2014-Oct-12 18:26N 48°45' W 122°30'0 0.2
2014-Oct-12 16:33N 48°45' W 122°31'0 0.4
2014-Oct-12 15:30N 48°45' W 122°31'1 0.2
2014-Oct-12 11:05N 48°45' W 122°30'2 3.1
2014-Oct-12 10:34N 48°44' W 122°32'0 0.0
2014-Oct-11 22:33N 48°45' W 122°32'1 0.1
2014-Oct-11 11:16N 48°45' W 122°30'0 0.1
2014-Oct-11 09:15N 48°45' W 122°30'6 8.2
2014-Oct-11 08:33N 48°40' W 122°33'9 1.3
2014-Oct-11 01:32N 48°31' W 122°35'5 4.9
2014-Oct-11 00:32N 48°35' W 122°33'  

Dump ship's entire track history